This is the latest recevied weather packets stored in our database for station/object K0QJ. If no packets are shown the sender has not sent any weather packets the latest 10 day(s).
| Time | Temp. | Humidity | Pressure | Rain* | Wind** | Luminosity | Snow |
|---|---|---|---|---|---|---|---|
| 1777844302 | 27.78° C | 35% | 1007.6 hPa | 0 mm | - | 54 W/m² | - |
| 1777843999 | 27.22° C | 35% | 1007.5 hPa | 0 mm | - | 83 W/m² | - |
| 1777843696 | 27.78° C | 35% | 1007.6 hPa | 0 mm | - | 45 W/m² | - |
| 1777843394 | 27.78° C | 35% | 1007.5 hPa | 0 mm | - | 55 W/m² | - |
| 1777843091 | 27.78° C | 35% | 1007.7 hPa | 0 mm | - | 54 W/m² | - |
| 1777842788 | 27.78° C | 35% | 1007.6 hPa | 0 mm | - | 63 W/m² | - |
| 1777842487 | 27.78° C | 35% | 1007.8 hPa | 0 mm | - | 56 W/m² | - |
| 1777842185 | 27.78° C | 34% | 1007.8 hPa | 0 mm | - | 79 W/m² | - |
| 1777841880 | 27.78° C | 35% | 1008 hPa | 0 mm | - | 186 W/m² | - |
| 1777841577 | 27.78° C | 35% | 1008 hPa | 0 mm | - | 72 W/m² | - |
| 1777841274 | 27.22° C | 34% | 1008.2 hPa | 0 mm | - | 123 W/m² | - |
| 1777840971 | 28.33° C | 34% | 1008.3 hPa | 0 mm | - | 528 W/m² | - |
| 1777840669 | 28.33° C | 35% | 1008.1 hPa | 0 mm | - | 569 W/m² | - |
| 1777840366 | 28.33° C | 35% | 1008.2 hPa | 0 mm | - | 576 W/m² | - |
| 1777840063 | 27.78° C | 35% | 1008.2 hPa | 0 mm | - | 611 W/m² | - |
| 1777839761 | 28.33° C | 33% | 1008.5 hPa | 0 mm | - | 652 W/m² | - |
| 1777839458 | 27.78° C | 37% | 1008.4 hPa | 0 mm | - | 675 W/m² | - |
| 1777839156 | 27.78° C | 38% | 1008.6 hPa | 0 mm | - | 673 W/m² | - |
| 1777838852 | 27.22° C | 38% | 1008.7 hPa | 0 mm | - | 647 W/m² | - |
| 1777838548 | 27.78° C | 38% | 1008.7 hPa | 0 mm | - | 680 W/m² | - |
| 1777838245 | 27.78° C | 39% | 1008.8 hPa | 0 mm | - | 704 W/m² | - |
| 1777837942 | 27.22° C | 40% | 1009.1 hPa | 0 mm | - | 688 W/m² | - |
| 1777837640 | 27.78° C | 39% | 1009 hPa | 0 mm | - | 640 W/m² | - |
| 1777837335 | 27.22° C | 39% | 1009.1 hPa | 0 mm | - | 626 W/m² | - |
| 1777837032 | 27.22° C | 39% | 1009.1 hPa | 0 mm | - | 618 W/m² | - |
* Rain latest hour (hover to see other rain measurements)
** Current wind speed in m/s (hover to see current wind gust speed)